Tracking 34171 objects as of 21-May-2026
HD Live streaming from Space Station
objects crossing your sky now

KUIPER-00438

Track KUIPER-00438 now!
10-day predictions
KUIPER-00438 is classified as:


NORAD ID: 68940
Int'l Code: 2026-098X
Perigee: 465.7 km
Apogee: 473.5 km
Inclination: 51.9 °
Period: 93.8 minutes
Semi major axis: 6840 km
RCS: Unknown
Launch date: April 30, 2026
Source: United States (US)
Launch site: AIR FORCE EASTERN TEST RANGE (AFETR)
Your satellite tracking list
Your tracking list is empty




NASA's NSSDC Master Catalog

Two Line Element Set (TLE):
1 68940U 26098X   26140.88207214 -.00016767  00000-0 -48406-3 0  9991
2 68940  51.8740 199.2553 0005746  49.4946 310.6540 15.34483105  3158
Source of the keplerian elements: AFSPC